VCV3492 SVMI-MUHA

Flight info

Callsign VCV3492
Flight time N/A
Altitude 38000
Route MARES1 MARES DCT AVELO UA315 PJG UL220 ABA UL332 AMBIN/N0473F400 UL332 UCL HERFO2A
Aircraft A346/H-SDE2E3FGHIJ3J4J5M1RWXY/LB1D1

Departure

Time 2026-05-07 00:35
Airport Maiquetía Simón Bolívar International Airport (SVMI)

Arrival

Time N/A
Airport José Martí International Airport (MUHA)
Time Latitude Longitude Altitude Speed Heading
2026-05-07 00:16 10.59850 -67.00519 237 ft 0 kts 178°
2026-05-07 00:24 10.59870 -67.00520 225 ft 4 kts 178°
2026-05-07 00:25 10.59893 -67.00520 242 ft 4 kts 184°
2026-05-07 00:25 10.59912 -67.00515 237 ft 4 kts 218°
2026-05-07 00:25 10.59920 -67.00504 237 ft 4 kts 261°
2026-05-07 00:25 10.59921 -67.00477 236 ft 4 kts 270°
2026-05-07 00:26 10.59921 -67.00464 241 ft 0 kts 268°
2026-05-07 00:28 10.59921 -67.00466 242 ft 1 kts 268°
2026-05-07 00:28 10.59921 -67.00479 236 ft 2 kts 268°
2026-05-07 00:28 10.59920 -67.00500 237 ft 0 kts 268°
2026-05-07 00:31 10.59920 -67.00504 237 ft 3 kts 268°
2026-05-07 00:31 10.59917 -67.00577 238 ft 17 kts 268°
2026-05-07 00:32 10.59912 -67.00720 240 ft 21 kts 268°
2026-05-07 00:32 10.59908 -67.00872 243 ft 22 kts 269°
2026-05-07 00:32 10.59903 -67.01030 246 ft 23 kts 268°
2026-05-07 00:32 10.59899 -67.01153 248 ft 17 kts 268°
2026-05-07 00:33 10.59968 -67.01232 249 ft 17 kts 341°
2026-05-07 00:33 10.60094 -67.01244 249 ft 20 kts 358°
2026-05-07 00:33 10.60115 -67.01244 249 ft 3 kts 358°
2026-05-07 00:33 10.60176 -67.01246 246 ft 15 kts 358°
2026-05-07 00:34 10.60298 -67.01250 247 ft 18 kts 358°
2026-05-07 00:34 10.60378 -67.01201 249 ft 13 kts 73°
2026-05-07 00:34 10.60382 -67.01169 248 ft 4 kts 85°
2026-05-07 00:34 10.60392 -67.00895 242 ft 85 kts 88°
2026-05-07 00:35 10.60419 -67.00000 228 ft 166 kts 88°
2026-05-07 00:35 10.60459 -66.98652 645 ft 198 kts 89°
2026-05-07 00:35 10.60670 -66.97278 1744 ft 198 kts 64°
2026-05-07 00:35 10.61632 -66.96288 2679 ft 201 kts 23°
2026-05-07 00:36 10.63020 -66.96119 3427 ft 205 kts 352°
2026-05-07 00:36 10.64362 -66.96705 3834 ft 223 kts 320°
2026-05-07 00:36 10.65260 -66.98096 4000 ft 253 kts 288°
2026-05-07 00:36 10.65705 -66.99918 3994 ft 273 kts 282°
2026-05-07 00:37 10.66102 -67.01829 4008 ft 282 kts 281°
2026-05-07 00:37 10.66508 -67.03829 4560 ft 291 kts 281°
2026-05-07 00:37 10.66935 -67.05896 5704 ft 284 kts 284°
2026-05-07 00:37 10.67795 -67.07742 6598 ft 290 kts 305°
2026-05-07 00:38 10.69089 -67.09360 7364 ft 296 kts 311°
2026-05-07 00:38 10.70472 -67.10939 8167 ft 301 kts 311°
2026-05-07 00:38 10.71878 -67.12577 8985 ft 306 kts 310°
2026-05-07 00:38 10.73261 -67.14246 9820 ft 310 kts 309°
2026-05-07 00:39 10.74658 -67.15974 10501 ft 316 kts 309°
2026-05-07 00:39 10.76093 -67.17775 10959 ft 332 kts 309°
2026-05-07 00:39 10.77585 -67.19653 11326 ft 350 kts 310°
2026-05-07 00:39 10.79157 -67.21630 11672 ft 368 kts 310°
2026-05-07 00:40 10.80802 -67.23706 11979 ft 386 kts 310°
2026-05-07 00:40 10.82523 -67.25878 12278 ft 403 kts 310°
2026-05-07 00:40 10.84309 -67.28134 12763 ft 413 kts 310°
2026-05-07 00:40 10.86120 -67.30428 13467 ft 416 kts 311°
2026-05-07 00:41 10.87942 -67.32734 14114 ft 420 kts 311°
2026-05-07 00:41 10.89778 -67.35056 14760 ft 422 kts 311°
2026-05-07 00:41 10.91622 -67.37390 15459 ft 423 kts 312°
2026-05-07 00:41 10.93472 -67.39731 16153 ft 425 kts 312°
2026-05-07 00:42 10.95329 -67.42081 16861 ft 427 kts 312°
2026-05-07 00:42 10.97195 -67.44443 17552 ft 428 kts 313°
2026-05-07 00:42 10.99067 -67.46813 18260 ft 430 kts 313°
2026-05-07 00:42 11.00950 -67.49194 18859 ft 432 kts 313°
2026-05-07 00:43 11.02819 -67.51552 19427 ft 435 kts 312°
2026-05-07 00:43 11.04720 -67.53954 19987 ft 437 kts 312°
2026-05-07 00:43 11.06634 -67.56376 20536 ft 439 kts 311°
2026-05-07 00:43 11.08555 -67.58811 21094 ft 441 kts 311°
2026-05-07 00:44 11.10482 -67.61256 21629 ft 443 kts 311°
2026-05-07 00:44 11.12416 -67.63711 22168 ft 445 kts 311°
2026-05-07 00:44 11.14362 -67.66178 22694 ft 447 kts 311°
2026-05-07 00:44 11.16321 -67.68658 23154 ft 450 kts 310°
2026-05-07 00:45 11.18285 -67.71163 23599 ft 453 kts 311°
2026-05-07 00:45 11.20255 -67.73672 24026 ft 454 kts 310°
2026-05-07 00:45 11.22238 -67.76186 24399 ft 457 kts 310°
2026-05-07 00:45 11.24236 -67.78725 24730 ft 460 kts 310°
2026-05-07 00:46 11.26244 -67.81280 25118 ft 462 kts 310°
2026-05-07 00:46 11.28257 -67.83841 25583 ft 462 kts 310°
2026-05-07 00:46 11.30268 -67.86396 26057 ft 462 kts 309°
2026-05-07 00:46 11.32284 -67.88955 26399 ft 465 kts 309°
2026-05-07 00:47 11.34316 -67.91540 26794 ft 467 kts 309°
2026-05-07 00:47 11.36348 -67.94123 27260 ft 467 kts 309°
2026-05-07 00:47 11.38393 -67.96722 27570 ft 471 kts 309°
2026-05-07 00:47 11.40443 -67.99331 27949 ft 473 kts 309°
2026-05-07 00:48 11.42502 -68.01954 28314 ft 475 kts 308°
2026-05-07 00:48 11.44558 -68.04585 28883 ft 472 kts 308°
2026-05-07 00:48 11.46597 -68.07197 29491 ft 469 kts 308°
2026-05-07 00:48 11.48628 -68.09800 30006 ft 469 kts 308°
2026-05-07 00:49 11.50659 -68.12403 30400 ft 469 kts 308°
2026-05-07 00:49 11.52692 -68.15007 30829 ft 468 kts 307°
2026-05-07 00:49 11.54715 -68.17598 31336 ft 465 kts 307°
2026-05-07 00:49 11.56727 -68.20180 31839 ft 463 kts 307°
2026-05-07 00:50 11.58732 -68.22750 32295 ft 462 kts 307°
2026-05-07 00:50 11.60736 -68.25317 32765 ft 461 kts 307°
2026-05-07 00:50 11.62705 -68.27842 33242 ft 459 kts 307°
2026-05-07 00:50 11.64718 -68.30424 33692 ft 459 kts 306°
2026-05-07 00:51 11.66706 -68.32976 34085 ft 458 kts 306°
2026-05-07 00:51 11.68690 -68.35524 34454 ft 458 kts 306°
2026-05-07 00:51 11.70670 -68.38066 34838 ft 457 kts 306°
2026-05-07 00:51 11.72619 -68.40570 35198 ft 457 kts 306°
2026-05-07 00:52 11.74598 -68.43113 35572 ft 456 kts 306°
2026-05-07 00:52 11.76569 -68.45645 35923 ft 456 kts 306°
2026-05-07 00:52 11.78542 -68.48181 36264 ft 455 kts 306°
2026-05-07 00:52 11.80511 -68.50713 36583 ft 456 kts 306°
2026-05-07 00:53 11.82491 -68.53259 36865 ft 457 kts 306°
2026-05-07 00:53 11.84474 -68.55812 37147 ft 459 kts 306°
2026-05-07 00:53 11.86461 -68.58368 37431 ft 460 kts 306°
2026-05-07 00:53 11.88451 -68.60928 37711 ft 461 kts 306°
2026-05-07 00:54 11.90451 -68.63502 37959 ft 463 kts 306°
2026-05-07 00:54 11.92452 -68.66078 37976 ft 464 kts 306°
2026-05-07 00:54 11.96466 -68.71244 37980 ft 463 kts 305°
2026-05-07 00:55 12.00467 -68.76401 37984 ft 463 kts 305°
2026-05-07 00:55 12.04471 -68.81562 37977 ft 463 kts 305°
2026-05-07 00:56 12.08478 -68.86729 37969 ft 463 kts 306°
2026-05-07 00:56 12.12476 -68.91889 37972 ft 462 kts 306°
2026-05-07 00:57 12.16238 -68.97151 37975 ft 460 kts 300°
2026-05-07 00:57 12.19460 -69.02775 37972 ft 458 kts 295°
2026-05-07 00:58 12.22097 -69.08690 37973 ft 456 kts 289°
2026-05-07 00:58 12.24219 -69.14806 37971 ft 456 kts 287°
2026-05-07 00:59 12.27282 -69.24025 37967 ft 455 kts 287°
2026-05-07 01:00 12.29322 -69.30162 37966 ft 455 kts 287°
2026-05-07 01:00 12.31360 -69.36299 37966 ft 455 kts 287°
2026-05-07 01:01 12.33396 -69.42427 37970 ft 454 kts 287°
2026-05-07 01:01 12.35428 -69.48556 37967 ft 454 kts 287°
2026-05-07 01:02 12.37458 -69.54685 37962 ft 454 kts 287°
2026-05-07 01:02 12.39486 -69.60811 37966 ft 454 kts 287°
2026-05-07 01:03 12.41513 -69.66935 37970 ft 454 kts 287°
2026-05-07 01:03 12.43540 -69.73061 37963 ft 454 kts 287°
2026-05-07 01:04 12.45551 -69.79145 37956 ft 454 kts 287°
2026-05-07 01:04 12.47595 -69.85267 37948 ft 454 kts 288°
2026-05-07 01:05 12.50092 -69.91229 37943 ft 455 kts 294°
2026-05-07 01:05 12.53200 -69.96894 37943 ft 457 kts 300°
2026-05-07 01:06 12.56895 -70.02204 37946 ft 459 kts 306°
2026-05-07 01:06 12.60952 -70.07268 37949 ft 459 kts 307°
2026-05-07 01:07 12.64340 -70.11466 37971 ft 459 kts 307°
2026-05-07 01:07 12.68406 -70.16509 37967 ft 459 kts 307°
2026-05-07 01:08 12.72476 -70.21565 37962 ft 459 kts 307°
2026-05-07 01:08 12.76518 -70.26591 37971 ft 456 kts 307°